Location: Charlottesville
(38.0290°N, 78.4770°W)
Time: 01:33:47
(UTC-04:00)

Tiangong 2 - Pass Details

Date: 07 October 2017
Orbit: 388 x 392 km, 42.8° (Epoch: 18 October)

Event Time Altitude Azimuth Distance (km) Brightness Sun altitude
Exits shadow 05:12:59 10° 142° (SE) 1,393 4.2 -24.8°
Maximum altitude 05:13:07 10° 140° (SE) 1,392 4.2 -24.7°
Drops below altitude 10° 05:13:42 10° 129° (SE) 1,416 4.4 -24.6°
Sets 05:17:21 0° 86° (E) 2,277 6.4 -23.9°
